Regional Weather Roundup
Issued by NWS

Home | Current Version | Previous Version | Text Only | Print | Product List | Glossary On
Versions: 1 2 3 4 5 6 7 8 9 10 11 12 13 14 15 16 17 18 19 20 21 22 23 24 25 26 27 28 29 30 31 32 33 34 35 36 37 38 39 40 41 42 43 44 45 46 47 48 49 50
000
ASUS43 KDMX 281307
RWRIA

WEATHER ROUNDUP FOR IOWA
NATIONAL WEATHER SERVICE DES MOINES IA
800 AM CDT TUE JUL 28 2015

NOTE: "FAIR" INDICATES FEW OR NO CLOUDS BELOW 12,000 FEET WITH NO
SIGNIFICANT WEATHER AND/OR OBSTRUCTIONS TO VISIBILITY.

* - THESE STATIONS ARE NOT NWS STATIONS...THUS NOT UNDER NWS
QUALITY CONTROL.  THEY ALSO DO NOT REPORT WEATHER SUCH
AS PRECIPITATION OR FOG.

IAZ001>003-012>014-020>022-031>034-043>046-281400-
   NORTHWEST IOWA

CITY           SKY/WX    TMP DP  RH WIND       PRES   REMARKS
CARROLL *      HVY RAIN  68  68 100 N7        29.94R VSB 1/2
CHEROKEE *     CLOUDY    68  68 100 SW7       29.89R
DENISON *      LGT RAIN  68  68 100 NE8       29.90R
LE MARS *      CLOUDY    70  66  88 S7G16     29.86F
ORANGE CITY *  MOSUNNY   66  66 100 S12G21    29.88R
SHELDON *      SUNNY     68  66  94 S14G21    29.85R
SIOUX CITY     CLOUDY    72  66  81 SE15      29.83R
SPENCER        LGT RAIN  71  68  90 SE13      29.83R
STORM LAKE *   LGT RAIN  68  68 100 SW8       29.92R
$$

IAZ055>058-069>071-079>083-090>094-281400-
   SOUTHWEST IOWA

CITY           SKY/WX    TMP DP  RH WIND       PRES   REMARKS
ATLANTIC *     CLOUDY    75  73  94 NW12      29.91R
AUDUBON *      HVY RAIN  70  66  88 N10G24    29.95R
CLARINDA *     SUNNY     79  75  89 S7        29.87R HX  82
COUNCIL BLFS * SUNNY     75  73  94 N9        29.90R
CRESTON *      SUNNY     75  73  94 S10       29.88R
HARLAN  *      LGT RAIN  72  72 100 NE12G18   29.96R
LAMONI         SUNNY     76  72  87 S10       29.89R
RED OAK *      SUNNY     79  75  89 S8        29.84S HX  82
SHENANDOAH *   SUNNY     79  75  89 S6G14     29.84R HX  82
$$

IAZ047>049-059>061-072>074-084-281400-
   CENTRAL IOWA

CITY           SKY/WX    TMP DP  RH WIND       PRES   REMARKS
AMES           PTSUNNY   73  71  93 S12       29.86F
ANKENY *       SUNNY     75  73  94 S9        29.86F
CHARITON *     SUNNY     75  72  88 S8        29.90R
DES MOINES     PTSUNNY   76  71  85 S13       29.87R
GRINNELL*      MOSUNNY   73  70  88 SE9       29.91S
KNOXVILLE *    SUNNY     73  72  94 S9        29.89R
MARSHALLTOWN   PTSUNNY   75  72  90 SE14G21   29.88F
PELLA *        SUNNY     77  75  94 SE7       29.91R
PERRY *        CLOUDY    73  72  94 NW13G25   29.92R
$$

IAZ004>006-015-016-023>025-035-036-281400-
   NORTH CENTRAL IOWA

CITY           SKY/WX    TMP DP  RH WIND       PRES   REMARKS
ALGONA *       RAIN      72  70  94 E8        29.88F
CLARION *      RAIN      72  70  94 N8G18     29.94R
ESTHERVILLE    LGT RAIN  68  67  96 E20G31    29.74F
FORT DODGE *   CLOUDY    70  66  88 NE6       29.91F
MASON CITY     CLOUDY    72  71  97 SE8       29.93R
FOREST CITY *  HVY RAIN  72  72 100 S3        29.96R
IOWA FALLS *   PTSUNNY   73  72  94 SE12      29.88F
$$

IAZ007>011-017>019-026>030-037>042-050>054-066-281400-
   NORTHEAST IOWA

CITY           SKY/WX    TMP DP  RH WIND       PRES   REMARKS
CEDAR RAPIDS   CLOUDY    73  73 100 E13       29.93S
CHARLES CITY * CLOUDY    73  73 100 VRB6      29.93R
CLINTON *      MOSUNNY   73  66  78 SE8       29.98F
DECORAH *      PTSUNNY   70  70 100 S6        29.94R FOG
DUBUQUE        MOSUNNY   72  67  84 S13       29.95F
MONTICELLO *   PTSUNNY   72  70  94 SE7       29.94S
OELWEIN *      DRIZZLE   72  72 100 S13       29.93F
WATERLOO       CLOUDY    74  72  93 SE10      29.89S
$$

IAZ064-065-067-068-078-281400-
   EAST CENTRAL IOWA

CITY           SKY/WX    TMP DP  RH WIND       PRES   REMARKS
DAVENPORT      PTSUNNY   76  71  85 SE9       29.96S
IOWA CITY      CLOUDY    74  73  97 E6        29.94F
MT. PLEASANT * MOSUNNY   77  72  83 SE8       29.93S
MUSCATINE *    PTSUNNY   75  73  94 SE6       29.93F
QUAD CITIES    MOSUNNY   74  70  87 E7        29.95S
$$

IAZ062-063-075>077-085>089-095>099-281400-
   SOUTHEAST IOWA

CITY           SKY/WX    TMP DP  RH WIND       PRES   REMARKS
BURLINGTON     MOSUNNY   75  73  93 SE6       29.95R
FAIRFIELD *    MOSUNNY   75  70  83 SE7       29.92S
FORT MADISON * SUNNY     73  73 100 SE5       29.95S
KEOKUK *       SUNNY     75  72  88 SE7       29.93S
OSKALOOSA *      N/A     73  72  94 S3        29.91S
CENTERVILLE *  SUNNY     75  72  88 S7        29.93S
OTTUMWA        SUNNY     74  72  93 S12       29.89F
WASHINGTON *   PTSUNNY   75  73  94 SE7       29.94S FOG
$$

ABBREVIATIONS USED IN REMARKS
   TC - TEMPERATURES IN CELSIUS
  WCI - WIND CHILL INDEX
   HX - HEAT INDEX
  VSB - VISIBILITY
$$



USA.gov is the U.S. government's official web portal to all federal, state and local government web resources and services.